Time,TemperatureF,DewpointF,PressureIn,WindDirection,WindDirectionDegrees,WindSpeedMPH,WindSpeedGustMPH,Humidity,HourlyPrecipIn,Conditions,Clouds,dailyrainin,SoftwareType,DateUTC
2013-08-25 00:00:00,74.7,50.7,30.21,SE,133,0.0,4.0,8,0.00,,,0.00,meteohub,2013-08-25 05:00:00,
2013-08-25 00:05:00,74.7,51.4,30.21,SE,130,0.0,4.0,8,0.00,,,0.00,meteohub,2013-08-25 05:05:00,
2013-08-25 00:10:00,74.7,51.6,30.21,ESE,120,0.0,4.0,8,0.00,,,0.00,meteohub,2013-08-25 05:10:00,
2013-08-25 00:15:00,74.5,50.7,30.18,SE,124,0.0,4.0,8,0.00,,,0.00,meteohub,2013-08-25 05:15:00,
2013-08-25 00:20:00,74.3,50.5,30.18,SE,124,0.0,4.0,8,0.00,,,0.00,meteohub,2013-08-25 05:20:00,
2013-08-25 00:25:00,74.1,51.3,30.18,SE,124,0.0,0.0,8,0.00,,,0.00,meteohub,2013-08-25 05:25:00,
2013-08-25 00:30:00,73.8,51.4,30.21,SE,124,0.0,0.0,8,0.00,,,0.00,meteohub,2013-08-25 05:30:00,
2013-08-25 00:35:00,73.4,50.9,30.21,SE,124,0.0,0.0,8,0.00,,,0.00,meteohub,2013-08-25 05:35:00,
2013-08-25 00:40:00,73.0,50.5,30.21,SE,131,0.0,0.0,9,0.00,,,0.00,meteohub,2013-08-25 05:40:00,
2013-08-25 00:45:00,72.9,50.5,30.21,SE,131,0.0,0.0,9,0.00,,,0.00,meteohub,2013-08-25 05:45:00,
2013-08-25 00:50:00,73.0,51.3,30.21,SE,131,0.0,0.0,9,0.00,,,0.00,meteohub,2013-08-25 05:50:00,
2013-08-25 00:55:00,72.9,50.7,30.21,SE,131,0.0,0.0,9,0.00,,,0.00,meteohub,2013-08-25 05:55:00,
2013-08-25 01:00:00,72.5,50.4,30.21,SE,131,0.0,0.0,9,0.00,,,0.00,meteohub,2013-08-25 06:00:00,
2013-08-25 01:05:00,72.5,51.1,30.21,SE,130,0.0,0.0,9,0.00,,,0.00,meteohub,2013-08-25 06:05:00,
2013-08-25 01:10:00,72.7,50.5,30.21,SE,129,0.0,5.0,9,0.00,,,0.00,meteohub,2013-08-25 06:10:00,
2013-08-25 01:16:00,72.5,50.5,30.21,SE,129,0.0,5.0,9,0.00,,,0.00,meteohub,2013-08-25 06:16:00,
2013-08-25 01:21:00,72.3,50.4,30.21,SE,129,0.0,0.0,9,0.00,,,0.00,meteohub,2013-08-25 06:21:00,
2013-08-25 01:26:00,72.0,51.1,30.21,SE,129,0.0,0.0,9,0.00,,,0.00,meteohub,2013-08-25 06:26:00,
2013-08-25 01:31:00,71.8,51.1,30.21,SE,129,0.0,0.0,9,0.00,,,0.00,meteohub,2013-08-25 06:31:00,
2013-08-25 01:36:00,71.6,50.5,30.21,SE,129,0.0,0.0,9,0.00,,,0.00,meteohub,2013-08-25 06:36:00,
2013-08-25 01:41:00,71.4,50.7,30.21,SE,129,0.0,0.0,9,0.00,,,0.00,meteohub,2013-08-25 06:41:00,
2013-08-25 01:46:00,71.2,50.7,30.21,SE,129,0.0,0.0,9,0.00,,,0.00,meteohub,2013-08-25 06:46:00,
2013-08-25 01:51:00,71.1,50.4,30.21,SE,129,0.0,0.0,9,0.00,,,0.00,meteohub,2013-08-25 06:51:00,
2013-08-25 01:56:00,70.7,51.1,30.21,SE,129,0.0,0.0,9,0.00,,,0.00,meteohub,2013-08-25 06:56:00,
2013-08-25 02:01:00,70.5,50.5,30.21,SE,129,0.0,0.0,9,0.00,,,0.00,meteohub,2013-08-25 07:01:00,
2013-08-25 02:06:00,70.5,50.7,30.21,SE,129,0.0,0.0,9,0.00,,,0.00,meteohub,2013-08-25 07:06:00,
2013-08-25 02:11:00,70.5,50.9,30.21,South,186,0.0,0.0,9,0.00,,,0.00,meteohub,2013-08-25 07:11:00,
2013-08-25 02:16:00,70.7,50.9,30.21,South,186,0.0,0.0,9,0.00,,,0.00,meteohub,2013-08-25 07:16:00,
2013-08-25 02:21:00,70.7,50.7,30.21,South,186,0.0,0.0,12,0.00,,,0.00,meteohub,2013-08-25 07:21:00,
2013-08-25 02:26:00,70.5,50.5,30.21,South,186,0.0,0.0,12,0.00,,,0.00,meteohub,2013-08-25 07:26:00,
2013-08-25 02:32:00,70.3,50.5,30.21,South,186,0.0,0.0,12,0.00,,,0.00,meteohub,2013-08-25 07:32:00,
2013-08-25 02:37:00,70.2,50.7,30.21,South,186,0.0,0.0,12,0.00,,,0.00,meteohub,2013-08-25 07:37:00,
2013-08-25 02:42:00,70.0,50.9,30.21,NNW,348,0.0,0.0,12,0.00,,,0.00,meteohub,2013-08-25 07:42:00,
2013-08-25 02:47:00,69.6,50.9,30.21,NNW,348,0.0,0.0,12,0.00,,,0.00,meteohub,2013-08-25 07:47:00,
2013-08-25 02:52:00,69.4,51.1,30.21,NNW,348,0.0,0.0,12,0.00,,,0.00,meteohub,2013-08-25 07:52:00,
2013-08-25 02:57:00,69.1,51.1,30.21,NNW,348,0.0,0.0,12,0.00,,,0.00,meteohub,2013-08-25 07:57:00,
2013-08-25 03:02:00,68.5,51.3,30.21,NNW,348,0.0,0.0,12,0.00,,,0.00,meteohub,2013-08-25 08:02:00,
2013-08-25 03:07:00,68.4,51.3,30.21,NNW,348,0.0,0.0,15,0.00,,,0.00,meteohub,2013-08-25 08:07:00,
2013-08-25 03:12:00,68.2,51.1,30.21,NNW,348,0.0,0.0,15,0.00,,,0.00,meteohub,2013-08-25 08:12:00,
2013-08-25 03:17:00,67.8,49.8,30.21,NNW,348,0.0,0.0,15,0.00,,,0.00,meteohub,2013-08-25 08:17:00,
2013-08-25 03:22:00,67.6,49.5,30.21,NNW,348,0.0,0.0,15,0.00,,,0.00,meteohub,2013-08-25 08:22:00,
2013-08-25 03:27:00,67.5,49.3,30.21,NNW,348,0.0,0.0,17,0.00,,,0.00,meteohub,2013-08-25 08:27:00,
2013-08-25 03:32:00,67.3,49.6,30.21,NNW,348,0.0,0.0,17,0.00,,,0.00,meteohub,2013-08-25 08:32:00,
2013-08-25 03:37:00,67.1,49.8,30.21,NNW,348,0.0,0.0,20,0.00,,,0.00,meteohub,2013-08-25 08:37:00,
2013-08-25 03:42:00,66.9,49.6,30.21,NNW,348,0.0,0.0,20,0.00,,,0.00,meteohub,2013-08-25 08:42:00,
2013-08-25 03:47:00,66.9,49.6,30.21,NNW,348,0.0,0.0,22,0.00,,,0.00,meteohub,2013-08-25 08:47:00,
2013-08-25 03:53:00,66.7,49.6,30.21,NNW,348,0.0,0.0,23,0.00,,,0.00,meteohub,2013-08-25 08:53:00,
2013-08-25 03:58:00,66.6,49.6,30.21,NNW,348,0.0,0.0,23,0.00,,,0.00,meteohub,2013-08-25 08:58:00,
2013-08-25 04:03:00,66.4,49.6,30.21,NNW,348,0.0,0.0,23,0.00,,,0.00,meteohub,2013-08-25 09:03:00,
2013-08-25 04:08:00,66.2,49.6,30.21,NNW,348,0.0,0.0,23,0.00,,,0.00,meteohub,2013-08-25 09:08:00,
2013-08-25 04:13:00,66.0,49.5,30.21,NNW,348,0.0,0.0,24,0.00,,,0.00,meteohub,2013-08-25 09:13:00,
2013-08-25 04:18:00,65.8,49.5,30.21,NNW,348,0.0,0.0,25,0.00,,,0.00,meteohub,2013-08-25 09:18:00,
2013-08-25 04:23:00,65.8,50.2,30.21,NNW,348,0.0,0.0,25,0.00,,,0.00,meteohub,2013-08-25 09:23:00,
2013-08-25 04:28:00,65.7,49.5,30.21,NNW,348,0.0,0.0,25,0.00,,,0.00,meteohub,2013-08-25 09:28:00,
2013-08-25 04:33:00,65.7,49.3,30.21,NNW,348,0.0,0.0,26,0.00,,,0.00,meteohub,2013-08-25 09:33:00,
2013-08-25 04:38:00,65.7,49.8,30.21,NNW,348,0.0,0.0,26,0.00,,,0.00,meteohub,2013-08-25 09:38:00,
2013-08-25 04:43:00,65.7,49.8,30.24,NNW,348,0.0,0.0,26,0.00,,,0.00,meteohub,2013-08-25 09:43:00,
2013-08-25 04:48:00,65.5,50.0,30.24,NNW,348,0.0,0.0,27,0.00,,,0.00,meteohub,2013-08-25 09:48:00,
2013-08-25 04:53:00,65.3,50.2,30.24,NNW,348,0.0,0.0,27,0.00,,,0.00,meteohub,2013-08-25 09:53:00,
2013-08-25 04:58:00,65.3,50.2,30.24,NNW,348,0.0,0.0,28,0.00,,,0.00,meteohub,2013-08-25 09:58:00,
2013-08-25 05:03:00,65.1,50.2,30.24,NNW,348,0.0,0.0,28,0.00,,,0.00,meteohub,2013-08-25 10:03:00,
2013-08-25 05:08:00,65.1,50.2,30.24,NNW,348,0.0,0.0,29,0.00,,,0.00,meteohub,2013-08-25 10:08:00,
2013-08-25 05:13:00,65.1,50.2,30.24,NNW,348,0.0,0.0,29,0.00,,,0.00,meteohub,2013-08-25 10:13:00,
2013-08-25 05:19:00,64.9,50.2,30.24,NNW,348,0.0,0.0,30,0.00,,,0.00,meteohub,2013-08-25 10:19:00,
2013-08-25 05:24:00,64.8,50.4,30.24,NNW,348,0.0,0.0,30,0.00,,,0.00,meteohub,2013-08-25 10:24:00,
2013-08-25 05:29:00,64.8,50.4,30.24,NNW,348,0.0,0.0,31,0.00,,,0.00,meteohub,2013-08-25 10:29:00,
2013-08-25 05:34:00,64.8,50.4,30.24,NNW,348,0.0,0.0,32,0.00,,,0.00,meteohub,2013-08-25 10:34:00,
2013-08-25 05:39:00,64.9,50.4,30.24,NNW,348,0.0,0.0,32,0.00,,,0.00,meteohub,2013-08-25 10:39:00,
2013-08-25 05:44:00,65.3,50.4,30.24,NNW,348,0.0,0.0,33,0.00,,,0.00,meteohub,2013-08-25 10:44:00,
2013-08-25 05:49:00,65.5,50.4,30.24,NNW,348,0.0,0.0,33,0.00,,,0.00,meteohub,2013-08-25 10:49:00,
2013-08-25 05:54:00,65.1,50.4,30.24,NNW,348,0.0,0.0,32,0.00,,,0.00,meteohub,2013-08-25 10:54:00,
2013-08-25 05:59:00,64.6,50.4,30.24,NNW,348,0.0,0.0,33,0.00,,,0.00,meteohub,2013-08-25 10:59:00,
2013-08-25 06:04:00,64.4,50.4,30.24,NNW,348,0.0,0.0,33,0.00,,,0.00,meteohub,2013-08-25 11:04:00,
2013-08-25 06:09:00,64.4,50.4,30.24,NNW,348,0.0,0.0,33,0.00,,,0.00,meteohub,2013-08-25 11:09:00,
2013-08-25 06:14:00,64.2,50.4,30.24,NNW,348,0.0,0.0,34,0.00,,,0.00,meteohub,2013-08-25 11:14:00,
2013-08-25 06:19:00,64.2,50.4,30.24,NNW,348,0.0,0.0,34,0.00,,,0.00,meteohub,2013-08-25 11:19:00,
2013-08-25 06:24:00,64.2,50.2,30.24,NNW,348,0.0,0.0,34,0.00,,,0.00,meteohub,2013-08-25 11:24:00,
2013-08-25 06:29:00,64.2,50.2,30.27,NNW,348,0.0,0.0,34,0.00,,,0.00,meteohub,2013-08-25 11:29:00,
2013-08-25 06:34:00,64.0,50.2,30.27,NNW,348,0.0,0.0,34,0.00,,,0.00,meteohub,2013-08-25 11:34:00,
2013-08-25 06:39:00,64.0,50.2,30.27,NNW,348,0.0,0.0,34,0.00,,,0.00,meteohub,2013-08-25 11:39:00,
2013-08-25 06:45:00,63.9,50.2,30.27,NNW,348,0.0,0.0,34,0.00,,,0.00,meteohub,2013-08-25 11:45:00,
2013-08-25 06:50:00,64.0,50.2,30.27,NNW,348,0.0,0.0,35,0.00,,,0.00,meteohub,2013-08-25 11:50:00,
2013-08-25 06:55:00,64.0,50.2,30.27,NNW,348,0.0,0.0,35,0.00,,,0.00,meteohub,2013-08-25 11:55:00,
2013-08-25 07:00:00,64.2,50.2,30.27,NNW,348,0.0,0.0,35,0.00,,,0.00,meteohub,2013-08-25 12:00:00,
2013-08-25 07:05:00,64.2,50.2,30.27,NNW,348,0.0,0.0,35,0.00,,,0.00,meteohub,2013-08-25 12:05:00,
2013-08-25 07:10:00,64.4,50.2,30.27,NNW,348,0.0,0.0,35,0.00,,,0.00,meteohub,2013-08-25 12:10:00,
2013-08-25 07:15:00,64.6,50.4,30.27,NNW,348,0.0,0.0,35,0.00,,,0.00,meteohub,2013-08-25 12:15:00,
2013-08-25 07:20:00,64.8,50.4,30.27,NNW,348,0.0,0.0,35,0.00,,,0.00,meteohub,2013-08-25 12:20:00,
2013-08-25 07:25:00,65.1,50.4,30.27,NNW,348,0.0,0.0,35,0.00,,,0.00,meteohub,2013-08-25 12:25:00,
2013-08-25 07:30:00,65.5,50.4,30.24,NNW,348,0.0,0.0,35,0.00,,,0.00,meteohub,2013-08-25 12:30:00,
2013-08-25 07:35:00,65.8,50.4,30.24,NNW,348,0.0,0.0,36,0.00,,,0.00,meteohub,2013-08-25 12:35:00,
2013-08-25 07:40:00,66.2,50.5,30.24,NNW,348,0.0,0.0,35,0.00,,,0.00,meteohub,2013-08-25 12:40:00,
2013-08-25 07:45:00,66.6,50.5,30.27,NNW,348,0.0,0.0,36,0.00,,,0.00,meteohub,2013-08-25 12:45:00,
2013-08-25 07:50:00,66.7,50.5,30.27,NNW,348,0.0,0.0,36,0.00,,,0.00,meteohub,2013-08-25 12:50:00,
2013-08-25 07:55:00,67.1,50.7,30.27,NNW,348,0.0,0.0,36,0.00,,,0.00,meteohub,2013-08-25 12:55:00,
2013-08-25 08:00:00,67.5,49.6,30.27,NNW,348,0.0,0.0,36,0.00,,,0.00,meteohub,2013-08-25 13:00:00,
2013-08-25 08:05:00,67.8,50.4,30.27,NNW,348,0.0,0.0,37,0.00,,,0.00,meteohub,2013-08-25 13:05:00,
2013-08-25 08:10:00,68.2,50.4,30.27,NNW,348,0.0,0.0,37,0.00,,,0.00,meteohub,2013-08-25 13:10:00,
2013-08-25 08:16:00,68.7,50.4,30.27,NNW,348,0.0,0.0,37,0.00,,,0.00,meteohub,2013-08-25 13:16:00,
2013-08-25 08:21:00,69.3,50.5,30.27,NNW,348,0.0,0.0,37,0.00,,,0.00,meteohub,2013-08-25 13:21:00,
2013-08-25 08:26:00,69.6,50.5,30.27,NNW,348,0.0,0.0,37,0.00,,,0.00,meteohub,2013-08-25 13:26:00,
2013-08-25 08:31:00,70.5,50.7,30.27,NNW,348,0.0,0.0,36,0.00,,,0.00,meteohub,2013-08-25 13:31:00,
2013-08-25 08:36:00,71.2,50.7,30.27,NNW,348,0.0,0.0,36,0.00,,,0.00,meteohub,2013-08-25 13:36:00,
2013-08-25 08:41:00,72.0,50.9,30.27,NNW,348,0.0,0.0,36,0.00,,,0.00,meteohub,2013-08-25 13:41:00,
2013-08-25 08:46:00,72.7,50.9,30.27,NNW,348,0.0,0.0,35,0.00,,,0.00,meteohub,2013-08-25 13:46:00,
2013-08-25 08:51:00,73.2,50.9,30.27,NNW,348,0.0,0.0,35,0.00,,,0.00,meteohub,2013-08-25 13:51:00,
2013-08-25 08:56:00,73.8,50.9,30.27,NNW,348,0.0,0.0,33,0.00,,,0.00,meteohub,2013-08-25 13:56:00,
2013-08-25 09:01:00,74.3,51.1,30.27,NNW,348,0.0,0.0,32,0.00,,,0.00,meteohub,2013-08-25 14:01:00,
2013-08-25 09:06:00,75.0,51.1,30.27,NNW,348,0.0,0.0,31,0.00,,,0.00,meteohub,2013-08-25 14:06:00,
2013-08-25 09:11:00,75.6,51.1,30.27,SSW,203,0.0,0.0,25,0.00,,,0.00,meteohub,2013-08-25 14:11:00,
2013-08-25 09:16:00,76.3,51.1,30.27,SSW,208,3.0,0.0,22,0.00,,,0.00,meteohub,2013-08-25 14:16:00,
2013-08-25 09:21:00,76.8,50.9,30.27,SSW,211,3.0,3.0,15,0.00,,,0.00,meteohub,2013-08-25 14:21:00,
2013-08-25 09:26:00,77.4,50.0,30.27,ESE,104,0.0,4.0,10,0.00,,,0.00,meteohub,2013-08-25 14:26:00,
2013-08-25 09:31:00,78.1,50.5,30.27,East,89,0.0,4.0,10,0.00,,,0.00,meteohub,2013-08-25 14:31:00,
2013-08-25 09:37:00,78.6,50.7,30.27,ESE,121,0.0,4.0,10,0.00,,,0.00,meteohub,2013-08-25 14:37:00,
2013-08-25 09:42:00,79.2,50.7,30.27,SSW,206,0.0,4.0,7,0.00,,,0.00,meteohub,2013-08-25 14:42:00,
2013-08-25 09:47:00,79.5,50.9,30.24,SSE,156,0.0,4.0,7,0.00,,,0.00,meteohub,2013-08-25 14:47:00,
2013-08-25 09:52:00,80.1,50.9,30.24,WSW,254,0.0,4.0,7,0.00,,,0.00,meteohub,2013-08-25 14:52:00,
2013-08-25 09:57:00,80.6,50.9,30.24,West,265,0.0,4.0,7,0.00,,,0.00,meteohub,2013-08-25 14:57:00,
2013-08-25 10:02:00,81.3,51.1,30.27,ESE,111,0.0,4.0,7,0.00,,,0.00,meteohub,2013-08-25 15:02:00,
2013-08-25 10:07:00,82.4,51.1,30.27,SSW,212,0.0,4.0,6,0.00,,,0.00,meteohub,2013-08-25 15:07:00,
2013-08-25 10:12:00,82.9,50.5,30.27,South,189,0.0,4.0,6,0.00,,,0.00,meteohub,2013-08-25 15:12:00,
2013-08-25 10:17:00,83.5,51.1,30.27,ESE,108,0.0,3.0,6,0.00,,,0.00,meteohub,2013-08-25 15:17:00,
2013-08-25 10:22:00,84.0,51.3,30.27,SSW,210,0.0,4.0,6,0.00,,,0.00,meteohub,2013-08-25 15:22:00,
2013-08-25 10:27:00,84.4,50.5,30.27,SSW,207,0.0,4.0,6,0.00,,,0.00,meteohub,2013-08-25 15:27:00,
2013-08-25 10:32:00,84.6,50.9,30.27,SSE,147,0.0,4.0,6,0.00,,,0.00,meteohub,2013-08-25 15:32:00,
2013-08-25 10:37:00,84.6,50.9,30.27,West,265,0.0,4.0,6,0.00,,,0.00,meteohub,2013-08-25 15:37:00,
2013-08-25 10:42:00,84.9,50.9,30.27,SW,222,0.0,5.0,6,0.00,,,0.00,meteohub,2013-08-25 15:42:00,
2013-08-25 10:47:00,85.6,51.1,30.24,SSW,198,0.0,5.0,6,0.00,,,0.00,meteohub,2013-08-25 15:47:00,
2013-08-25 10:52:00,86.5,51.1,30.24,SSW,206,0.0,3.0,6,0.00,,,0.00,meteohub,2013-08-25 15:52:00,
2013-08-25 10:57:00,87.1,51.1,30.24,SSW,207,0.0,3.0,6,0.00,,,0.00,meteohub,2013-08-25 15:57:00,
2013-08-25 11:03:00,87.1,50.9,30.24,SW,214,0.0,3.0,6,0.00,,,0.00,meteohub,2013-08-25 16:03:00,
2013-08-25 11:08:00,87.1,51.1,30.24,South,178,3.0,4.0,6,0.00,,,0.00,meteohub,2013-08-25 16:08:00,
2013-08-25 11:13:00,87.4,51.1,30.24,SW,218,0.0,4.0,6,0.00,,,0.00,meteohub,2013-08-25 16:13:00,
2013-08-25 11:18:00,87.6,51.1,30.24,ESE,109,3.0,4.0,6,0.00,,,0.00,meteohub,2013-08-25 16:18:00,
2013-08-25 11:23:00,87.6,51.1,30.24,East,89,0.0,5.0,6,0.00,,,0.00,meteohub,2013-08-25 16:23:00,
2013-08-25 11:28:00,87.8,51.1,30.24,ESE,119,0.0,5.0,5,0.00,,,0.00,meteohub,2013-08-25 16:28:00,
2013-08-25 11:33:00,88.3,51.1,30.24,SSW,213,0.0,4.0,5,0.00,,,0.00,meteohub,2013-08-25 16:33:00,
2013-08-25 11:38:00,88.0,51.1,30.24,North,350,0.0,4.0,5,0.00,,,0.00,meteohub,2013-08-25 16:38:00,
2013-08-25 11:43:00,88.0,51.4,30.24,SE,130,0.0,4.0,5,0.00,,,0.00,meteohub,2013-08-25 16:43:00,
2013-08-25 11:48:00,88.3,51.6,30.24,SSW,197,4.0,4.0,5,0.00,,,0.00,meteohub,2013-08-25 16:48:00,
2013-08-25 11:53:00,88.2,51.6,30.24,WNW,299,0.0,6.0,5,0.00,,,0.00,meteohub,2013-08-25 16:53:00,
2013-08-25 11:59:00,88.5,51.8,30.24,SE,142,0.0,6.0,5,0.00,,,0.00,meteohub,2013-08-25 16:59:00,
2013-08-25 12:04:00,89.2,52.0,30.24,North,4,0.0,6.0,5,0.00,,,0.00,meteohub,2013-08-25 17:04:00,
2013-08-25 12:09:00,89.4,52.7,30.24,SW,218,0.0,4.0,5,0.00,,,0.00,meteohub,2013-08-25 17:09:00,
2013-08-25 12:14:00,90.3,52.7,30.24,SSE,148,0.0,4.0,5,0.00,,,0.00,meteohub,2013-08-25 17:14:00,
2013-08-25 12:19:00,90.5,52.9,30.24,SE,141,0.0,3.0,5,0.00,,,0.00,meteohub,2013-08-25 17:19:00,
2013-08-25 12:24:00,90.5,52.9,30.24,WSW,240,0.0,4.0,5,0.00,,,0.00,meteohub,2013-08-25 17:24:00,
2013-08-25 12:29:00,90.5,52.2,30.24,SSW,201,0.0,4.0,5,0.00,,,0.00,meteohub,2013-08-25 17:29:00,
2013-08-25 12:34:00,90.3,52.0,30.24,SSW,213,0.0,5.0,5,0.00,,,0.00,meteohub,2013-08-25 17:34:00,
2013-08-25 12:39:00,90.0,52.0,30.24,SSE,165,0.0,5.0,5,0.00,,,0.00,meteohub,2013-08-25 17:39:00,
2013-08-25 12:44:00,90.3,52.9,30.21,SSW,209,3.0,5.0,5,0.00,,,0.00,meteohub,2013-08-25 17:44:00,
2013-08-25 12:50:00,90.5,52.9,30.21,SW,228,0.0,4.0,5,0.00,,,0.00,meteohub,2013-08-25 17:50:00,
2013-08-25 12:55:00,90.9,52.2,30.21,SSW,196,0.0,5.0,5,0.00,,,0.00,meteohub,2013-08-25 17:55:00,
2013-08-25 13:00:00,91.0,52.0,30.21,SSW,199,3.0,5.0,5,0.00,,,0.00,meteohub,2013-08-25 18:00:00,
2013-08-25 13:05:00,90.7,52.0,30.21,NW,326,0.0,5.0,5,0.00,,,0.00,meteohub,2013-08-25 18:05:00,
2013-08-25 13:10:00,90.3,52.7,30.21,SSW,199,3.0,5.0,5,0.00,,,0.00,meteohub,2013-08-25 18:10:00,
2013-08-25 13:15:00,90.5,52.2,30.21,SSW,202,2.0,5.0,5,0.00,,,0.00,meteohub,2013-08-25 18:15:00,
2013-08-25 13:20:00,90.9,52.0,30.21,ESE,120,4.0,5.0,5,0.00,,,0.00,meteohub,2013-08-25 18:20:00,
2013-08-25 13:25:00,91.2,52.0,30.21,SSE,158,0.0,5.0,5,0.00,,,0.00,meteohub,2013-08-25 18:25:00,
2013-08-25 13:30:00,91.4,52.2,30.21,WSW,253,0.0,5.0,4,0.00,,,0.00,meteohub,2013-08-25 18:30:00,
2013-08-25 13:35:00,91.8,52.9,30.21,South,190,0.0,5.0,4,0.00,,,0.00,meteohub,2013-08-25 18:35:00,
2013-08-25 13:40:00,91.9,53.1,30.21,North,0,0.0,4.0,4,0.00,,,0.00,meteohub,2013-08-25 18:40:00,
2013-08-25 13:45:00,91.9,52.9,30.21,WNW,299,2.0,4.0,4,0.00,,,0.00,meteohub,2013-08-25 18:45:00,
2013-08-25 13:50:00,91.8,52.9,30.21,WNW,289,3.0,5.0,4,0.00,,,0.00,meteohub,2013-08-25 18:50:00,
2013-08-25 13:55:00,91.8,52.9,30.21,SSW,202,2.0,5.0,4,0.00,,,0.00,meteohub,2013-08-25 18:55:00,
2013-08-25 14:01:00,92.5,53.1,30.21,SSW,203,4.0,5.0,4,0.00,,,0.00,meteohub,2013-08-25 19:01:00,
2013-08-25 14:06:00,92.5,52.9,30.21,SSW,196,3.0,5.0,4,0.00,,,0.00,meteohub,2013-08-25 19:06:00,
2013-08-25 14:11:00,92.1,52.9,30.21,SSE,160,0.0,6.0,4,0.00,,,0.00,meteohub,2013-08-25 19:11:00,
2013-08-25 14:16:00,92.3,53.6,30.21,SE,129,3.0,6.0,4,0.00,,,0.00,meteohub,2013-08-25 19:16:00,
2013-08-25 14:21:00,92.7,53.8,30.21,ENE,72,3.0,4.0,4,0.00,,,0.00,meteohub,2013-08-25 19:21:00,
2013-08-25 14:26:00,93.0,54.0,30.21,SW,217,0.0,5.0,4,0.00,,,0.00,meteohub,2013-08-25 19:26:00,
2013-08-25 14:31:00,93.4,52.9,30.21,SW,229,3.0,5.0,4,0.00,,,0.00,meteohub,2013-08-25 19:31:00,
2013-08-25 14:36:00,93.4,52.9,30.21,ESE,118,0.0,5.0,4,0.00,,,0.00,meteohub,2013-08-25 19:36:00,
2013-08-25 14:41:00,93.0,53.8,30.21,WSW,257,0.0,6.0,4,0.00,,,0.00,meteohub,2013-08-25 19:41:00,
2013-08-25 14:46:00,93.4,54.1,30.18,ESE,111,7.0,7.0,4,0.00,,,0.00,meteohub,2013-08-25 19:46:00,
2013-08-25 14:51:00,92.8,53.8,30.18,West,267,2.0,7.0,4,0.00,,,0.00,meteohub,2013-08-25 19:51:00,
2013-08-25 14:56:00,92.7,53.1,30.18,SW,226,0.0,7.0,4,0.00,,,0.00,meteohub,2013-08-25 19:56:00,
2013-08-25 15:02:00,92.8,54.0,30.18,East,89,4.0,7.0,4,0.00,,,0.00,meteohub,2013-08-25 20:02:00,
2013-08-25 15:07:00,92.1,54.0,30.18,ESE,108,0.0,6.0,4,0.00,,,0.00,meteohub,2013-08-25 20:07:00,
2013-08-25 15:12:00,91.9,53.1,30.18,North,353,0.0,6.0,4,0.00,,,0.00,meteohub,2013-08-25 20:12:00,
2013-08-25 15:17:00,91.9,53.1,30.18,ESE,122,0.0,6.0,4,0.00,,,0.00,meteohub,2013-08-25 20:17:00,
2013-08-25 15:22:00,91.9,53.1,30.18,ESE,111,2.0,6.0,4,0.00,,,0.00,meteohub,2013-08-25 20:22:00,
2013-08-25 15:27:00,91.9,53.2,30.18,SSW,200,2.0,6.0,4,0.00,,,0.00,meteohub,2013-08-25 20:27:00,
2013-08-25 15:32:00,92.1,53.1,30.18,ESE,115,0.0,6.0,4,0.00,,,0.00,meteohub,2013-08-25 20:32:00,
2013-08-25 15:37:00,92.1,52.3,30.18,WSW,250,0.0,5.0,4,0.00,,,0.00,meteohub,2013-08-25 20:37:00,
2013-08-25 15:42:00,92.7,52.9,30.18,SW,233,0.0,5.0,4,0.00,,,0.00,meteohub,2013-08-25 20:42:00,
2013-08-25 15:47:00,93.6,53.2,30.18,North,7,0.0,5.0,4,0.00,,,0.00,meteohub,2013-08-25 20:47:00,
2013-08-25 15:52:00,93.4,53.6,30.18,SSE,149,0.0,4.0,4,0.00,,,0.00,meteohub,2013-08-25 20:52:00,
2013-08-25 15:57:00,93.4,53.8,30.18,ESE,103,0.0,4.0,4,0.00,,,0.00,meteohub,2013-08-25 20:57:00,
2013-08-25 16:02:00,93.2,54.1,30.18,SSW,203,3.0,4.0,4,0.00,,,0.00,meteohub,2013-08-25 21:02:00,
2013-08-25 16:07:00,93.0,54.3,30.18,East,101,0.0,4.0,4,0.00,,,0.00,meteohub,2013-08-25 21:07:00,
2013-08-25 16:12:00,92.5,54.5,30.18,East,81,0.0,4.0,4,0.00,,,0.00,meteohub,2013-08-25 21:12:00,
2013-08-25 16:17:00,92.3,54.1,30.18,SSW,200,0.0,4.0,4,0.00,,,0.00,meteohub,2013-08-25 21:17:00,
2013-08-25 16:23:00,92.3,54.0,30.18,NE,50,3.0,4.0,4,0.00,,,0.00,meteohub,2013-08-25 21:23:00,
2013-08-25 16:28:00,92.1,54.1,30.18,SE,129,0.0,4.0,4,0.00,,,0.00,meteohub,2013-08-25 21:28:00,
2013-08-25 16:33:00,92.3,54.3,30.18,ESE,119,5.0,6.0,4,0.00,,,0.00,meteohub,2013-08-25 21:33:00,
2013-08-25 16:38:00,92.1,54.3,30.18,ESE,105,0.0,6.0,4,0.00,,,0.00,meteohub,2013-08-25 21:38:00,
2013-08-25 16:43:00,91.9,53.2,30.18,SE,141,3.0,6.0,4,0.00,,,0.00,meteohub,2013-08-25 21:43:00,
2013-08-25 16:48:00,92.1,53.1,30.18,SSW,212,0.0,6.0,4,0.00,,,0.00,meteohub,2013-08-25 21:48:00,
2013-08-25 16:53:00,92.7,54.0,30.18,SSW,206,0.0,4.0,4,0.00,,,0.00,meteohub,2013-08-25 21:53:00,
2013-08-25 16:58:00,92.8,54.1,30.15,SW,220,0.0,4.0,4,0.00,,,0.00,meteohub,2013-08-25 21:58:00,
2013-08-25 17:03:00,92.8,53.2,30.15,SE,142,0.0,4.0,4,0.00,,,0.00,meteohub,2013-08-25 22:03:00,
2013-08-25 17:08:00,92.5,53.1,30.15,SSW,195,0.0,5.0,4,0.00,,,0.00,meteohub,2013-08-25 22:08:00,
2013-08-25 17:13:00,92.3,53.1,30.15,ENE,65,3.0,5.0,4,0.00,,,0.00,meteohub,2013-08-25 22:13:00,
2013-08-25 17:18:00,91.4,54.0,30.15,East,80,3.0,5.0,4,0.00,,,0.00,meteohub,2013-08-25 22:18:00,
2013-08-25 17:23:00,90.7,52.9,30.15,ENE,78,3.0,4.0,5,0.00,,,0.00,meteohub,2013-08-25 22:23:00,
2013-08-25 17:28:00,90.5,52.9,30.15,SSE,152,6.0,6.0,5,0.00,,,0.00,meteohub,2013-08-25 22:28:00,
2013-08-25 17:33:00,90.5,52.9,30.15,WSW,241,3.0,6.0,5,0.00,,,0.00,meteohub,2013-08-25 22:33:00,
2013-08-25 17:39:00,90.7,53.1,30.15,ESE,104,5.0,6.0,5,0.00,,,0.00,meteohub,2013-08-25 22:39:00,
2013-08-25 17:44:00,90.7,52.9,30.15,SE,125,0.0,7.0,5,0.00,,,0.00,meteohub,2013-08-25 22:44:00,
2013-08-25 17:49:00,90.3,52.7,30.15,East,95,3.0,7.0,5,0.00,,,0.00,meteohub,2013-08-25 22:49:00,
2013-08-25 17:54:00,90.1,52.9,30.15,ENE,72,3.0,8.0,5,0.00,,,0.00,meteohub,2013-08-25 22:54:00,
2013-08-25 17:59:00,89.8,52.9,30.15,SE,127,4.0,8.0,5,0.00,,,0.00,meteohub,2013-08-25 22:59:00,
2013-08-25 18:04:00,89.6,52.9,30.15,SE,126,3.0,8.0,5,0.00,,,0.00,meteohub,2013-08-25 23:04:00,
2013-08-25 18:09:00,89.2,52.9,30.15,SE,132,4.0,6.0,5,0.00,,,0.00,meteohub,2013-08-25 23:09:00,
2013-08-25 18:14:00,89.2,52.7,30.15,ESE,119,3.0,6.0,5,0.00,,,0.00,meteohub,2013-08-25 23:14:00,
2013-08-25 18:19:00,89.1,52.9,30.15,SE,128,0.0,6.0,5,0.00,,,0.00,meteohub,2013-08-25 23:19:00,
2013-08-25 18:24:00,88.9,52.9,30.15,SE,125,0.0,8.0,5,0.00,,,0.00,meteohub,2013-08-25 23:24:00,
2013-08-25 18:29:00,88.7,52.7,30.15,SE,124,5.0,8.0,5,0.00,,,0.00,meteohub,2013-08-25 23:29:00,
2013-08-25 18:34:00,88.2,52.5,30.15,SE,131,5.0,8.0,5,0.00,,,0.00,meteohub,2013-08-25 23:34:00,
2013-08-25 18:39:00,87.8,52.9,30.15,ESE,119,0.0,6.0,5,0.00,,,0.00,meteohub,2013-08-25 23:39:00,
2013-08-25 18:45:00,87.6,53.8,30.15,East,86,0.0,6.0,6,0.00,,,0.00,meteohub,2013-08-25 23:45:00,
2013-08-25 18:50:00,87.3,52.9,30.15,ESE,122,0.0,6.0,6,0.00,,,0.00,meteohub,2013-08-25 23:50:00,
2013-08-25 18:55:00,87.1,52.7,30.15,ESE,116,0.0,6.0,6,0.00,,,0.00,meteohub,2013-08-25 23:55:00,
2013-08-25 19:00:00,86.9,52.9,30.18,SE,131,4.0,5.0,6,0.00,,,0.00,meteohub,2013-08-26 00:00:00,
2013-08-25 19:05:00,86.7,52.9,30.18,ESE,116,4.0,6.0,6,0.00,,,0.00,meteohub,2013-08-26 00:05:00,
2013-08-25 19:10:00,86.5,52.9,30.18,SE,125,3.0,6.0,6,0.00,,,0.00,meteohub,2013-08-26 00:10:00,
2013-08-25 19:15:00,86.4,52.7,30.18,SE,124,4.0,6.0,6,0.00,,,0.00,meteohub,2013-08-26 00:15:00,
2013-08-25 19:20:00,86.0,52.7,30.18,ESE,116,0.0,6.0,6,0.00,,,0.00,meteohub,2013-08-26 00:20:00,
2013-08-25 19:25:00,85.8,52.9,30.18,SE,126,0.0,6.0,6,0.00,,,0.00,meteohub,2013-08-26 00:25:00,
2013-08-25 19:30:00,85.6,52.7,30.18,SE,128,0.0,5.0,6,0.00,,,0.00,meteohub,2013-08-26 00:30:00,
2013-08-25 19:35:00,85.3,52.5,30.18,SE,130,4.0,5.0,6,0.00,,,0.00,meteohub,2013-08-26 00:35:00,
2013-08-25 19:40:00,85.1,53.2,30.18,SE,140,4.0,5.0,6,0.00,,,0.00,meteohub,2013-08-26 00:40:00,
2013-08-25 19:45:00,84.7,53.6,30.18,SE,126,0.0,5.0,6,0.00,,,0.00,meteohub,2013-08-26 00:45:00,
2013-08-25 19:50:00,84.4,52.9,30.18,SE,126,0.0,5.0,6,0.00,,,0.00,meteohub,2013-08-26 00:50:00,
2013-08-25 19:56:00,83.8,52.5,30.18,SE,126,0.0,4.0,6,0.00,,,0.00,meteohub,2013-08-26 00:56:00,
2013-08-25 20:01:00,83.3,52.7,30.18,SE,126,0.0,0.0,6,0.00,,,0.00,meteohub,2013-08-26 01:01:00,
2013-08-25 20:06:00,82.6,53.6,30.18,SE,126,0.0,0.0,6,0.00,,,0.00,meteohub,2013-08-26 01:06:00,
2013-08-25 20:11:00,82.0,52.9,30.18,SE,126,0.0,0.0,7,0.00,,,0.00,meteohub,2013-08-26 01:11:00,
2013-08-25 20:16:00,81.7,52.5,30.18,ESE,123,0.0,0.0,7,0.00,,,0.00,meteohub,2013-08-26 01:16:00,
2013-08-25 20:21:00,81.9,52.5,30.18,SE,131,2.0,3.0,7,0.00,,,0.00,meteohub,2013-08-26 01:21:00,
2013-08-25 20:26:00,81.9,53.2,30.18,SE,141,0.0,3.0,7,0.00,,,0.00,meteohub,2013-08-26 01:26:00,
2013-08-25 20:31:00,81.7,53.4,30.18,SE,128,0.0,3.0,7,0.00,,,0.00,meteohub,2013-08-26 01:31:00,
2013-08-25 20:36:00,81.7,52.7,30.18,SE,124,0.0,3.0,7,0.00,,,0.00,meteohub,2013-08-26 01:36:00,
2013-08-25 20:41:00,81.7,52.7,30.18,SE,130,0.0,4.0,7,0.00,,,0.00,meteohub,2013-08-26 01:41:00,
2013-08-25 20:46:00,81.9,53.4,30.18,SE,127,4.0,4.0,7,0.00,,,0.00,meteohub,2013-08-26 01:46:00,
2013-08-25 20:51:00,82.0,53.6,30.18,SE,125,2.0,6.0,7,0.00,,,0.00,meteohub,2013-08-26 01:51:00,
2013-08-25 20:56:00,82.0,52.7,30.18,SE,129,3.0,6.0,7,0.00,,,0.00,meteohub,2013-08-26 01:56:00,
2013-08-25 21:01:00,82.0,52.5,30.18,SE,125,0.0,5.0,7,0.00,,,0.00,meteohub,2013-08-26 02:01:00,
2013-08-25 21:06:00,81.9,51.4,30.18,SSE,163,0.0,4.0,7,0.00,,,0.00,meteohub,2013-08-26 02:06:00,
2013-08-25 21:11:00,81.7,51.3,30.18,South,184,0.0,4.0,7,0.00,,,0.00,meteohub,2013-08-26 02:11:00,
2013-08-25 21:17:00,81.5,50.9,30.18,ESE,116,0.0,4.0,7,0.00,,,0.00,meteohub,2013-08-26 02:17:00,
2013-08-25 21:22:00,81.3,50.7,30.18,ESE,106,3.0,4.0,7,0.00,,,0.00,meteohub,2013-08-26 02:22:00,
2013-08-25 21:27:00,81.1,50.7,30.18,SE,145,0.0,4.0,7,0.00,,,0.00,meteohub,2013-08-26 02:27:00,
2013-08-25 21:32:00,81.0,51.4,30.18,SE,136,2.0,5.0,7,0.00,,,0.00,meteohub,2013-08-26 02:32:00,
2013-08-25 21:37:00,80.8,51.3,30.18,SE,139,0.0,6.0,7,0.00,,,0.00,meteohub,2013-08-26 02:37:00,
2013-08-25 21:42:00,80.8,51.3,30.18,ESE,120,3.0,6.0,7,0.00,,,0.00,meteohub,2013-08-26 02:42:00,
2013-08-25 21:47:00,80.6,51.3,30.18,ESE,115,5.0,5.0,7,0.00,,,0.00,meteohub,2013-08-26 02:47:00,
2013-08-25 21:52:00,80.4,51.3,30.18,SSE,157,0.0,5.0,7,0.00,,,0.00,meteohub,2013-08-26 02:52:00,
2013-08-25 21:57:00,80.2,51.3,30.18,South,190,0.0,5.0,7,0.00,,,0.00,meteohub,2013-08-26 02:57:00,
2013-08-25 22:02:00,80.1,51.1,30.18,SW,217,0.0,5.0,7,0.00,,,0.00,meteohub,2013-08-26 03:02:00,
2013-08-25 22:07:00,79.9,51.3,30.18,SW,224,0.0,4.0,7,0.00,,,0.00,meteohub,2013-08-26 03:07:00,
2013-08-25 22:12:00,79.9,51.4,30.18,SSE,148,0.0,3.0,7,0.00,,,0.00,meteohub,2013-08-26 03:12:00,
2013-08-25 22:17:00,79.7,51.3,30.21,SSW,205,0.0,3.0,7,0.00,,,0.00,meteohub,2013-08-26 03:17:00,
2013-08-25 22:22:00,79.5,51.1,30.21,SE,140,0.0,3.0,7,0.00,,,0.00,meteohub,2013-08-26 03:22:00,
2013-08-25 22:27:00,79.5,51.3,30.21,ESE,109,0.0,2.0,7,0.00,,,0.00,meteohub,2013-08-26 03:27:00,
2013-08-25 22:32:00,79.3,51.3,30.21,South,172,0.0,3.0,7,0.00,,,0.00,meteohub,2013-08-26 03:32:00,
2013-08-25 22:38:00,79.3,51.3,30.21,SSE,165,0.0,3.0,10,0.00,,,0.00,meteohub,2013-08-26 03:38:00,
2013-08-25 22:43:00,79.3,51.1,30.21,SSW,200,0.0,3.0,10,0.00,,,0.00,meteohub,2013-08-26 03:43:00,
2013-08-25 22:48:00,79.2,51.3,30.21,SSW,198,0.0,3.0,10,0.00,,,0.00,meteohub,2013-08-26 03:48:00,
2013-08-25 22:53:00,79.0,51.4,30.21,SE,144,0.0,3.0,10,0.00,,,0.00,meteohub,2013-08-26 03:53:00,
2013-08-25 22:58:00,79.0,51.4,30.21,SSW,195,0.0,3.0,10,0.00,,,0.00,meteohub,2013-08-26 03:58:00,
2013-08-25 23:01:00,78.8,51.3,30.21,SE,145,0.0,3.0,10,0.00,,,0.00,meteohub,2013-08-26 04:01:00,
2013-08-25 23:02:00,78.8,51.3,30.21,SE,146,0.0,3.0,10,0.00,,,0.00,meteohub,2013-08-26 04:02:00,
2013-08-25 23:04:00,78.8,51.3,30.21,SE,130,0.0,3.0,10,0.00,,,0.00,meteohub,2013-08-26 04:04:00,
2013-08-25 23:09:00,78.6,50.2,30.21,SSE,150,0.0,0.0,10,0.00,,,0.00,meteohub,2013-08-26 04:09:00,
2013-08-25 23:14:00,78.6,50.2,30.21,SW,214,0.0,3.0,10,0.00,,,0.00,meteohub,2013-08-26 04:14:00,
2013-08-25 23:20:00,78.4,49.8,30.21,ESE,118,0.0,3.0,10,0.00,,,0.00,meteohub,2013-08-26 04:20:00,
2013-08-25 23:25:00,78.4,49.8,30.21,SE,133,0.0,3.0,10,0.00,,,0.00,meteohub,2013-08-26 04:25:00,
2013-08-25 23:30:00,78.3,49.8,30.21,SE,133,0.0,3.0,13,0.00,,,0.00,meteohub,2013-08-26 04:30:00,
2013-08-25 23:35:00,78.1,49.6,30.21,SSE,154,0.0,0.0,13,0.00,,,0.00,meteohub,2013-08-26 04:35:00,
2013-08-25 23:40:00,77.9,49.6,30.21,ESE,118,0.0,0.0,13,0.00,,,0.00,meteohub,2013-08-26 04:40:00,
2013-08-25 23:45:00,77.7,49.5,30.21,ESE,118,0.0,0.0,13,0.00,,,0.00,meteohub,2013-08-26 04:45:00,
2013-08-25 23:50:00,77.5,50.2,30.21,South,191,0.0,0.0,13,0.00,,,0.00,meteohub,2013-08-26 04:50:00,
2013-08-25 23:55:00,77.5,49.5,30.21,South,191,0.0,0.0,13,0.00,,,0.00,meteohub,2013-08-26 04:55:00,